Tracking 31027 objects as of 19-Jul-2025
HD Live streaming from Space Station
objects crossing your sky now

ONEWEB-0304

Track ONEWEB-0304 now!
10-day predictions
ONEWEB-0304 is classified as:


NORAD ID: 49092
Int'l Code: 2021-075T
Perigee: 1,199.6 km
Apogee: 1,202.1 km
Inclination: 87.9 °
Period: 109.3 minutes
Semi major axis: 7571 km
RCS: Unknown
Launch date: August 21, 2021
Source: United Kingdom (UK)
Launch site: TYURATAM MISSILE AND SPACE COMPLEX (TTMTR)
Your satellite tracking list
FENGYUN 1C DEB
Track 1 satellite(s)




NASA's NSSDC Master Catalog

Two Line Element Set (TLE):
1 49092U 21075T   25199.58074317  .00000066  00000-0  13620-3 0  9997
2 49092  87.9050  72.2705 0001685  80.9639 279.1683 13.17648964189646
Source of the keplerian elements: AFSPC